Regional Weather Roundup
Issued by NWS

Home | Current Version | Previous Version | Graphics & Text | Print | Product List | Glossary On
Versions: 1 2 3 4 5 6 7 8 9 10 11 12 13 14 15 16 17 18 19 20 21 22 23 24 25 26 27 28 29 30 31 32 33 34 35 36 37 38 39 40 41 42 43 44 45 46 47 48 49 50
512
ASUS44 KLIX 292301
RWRLA
LOUISIANA WEATHER ROUNDUP
NATIONAL WEATHER SERVICE NEW ORLEANS LA
600 PM CDT MON SEP 29 2014

NOTE: "FAIR" INDICATES FEW OR NO CLOUDS BELOW 12,000 FEET WITH NO
      SIGNIFICANT WEATHER AND/OR OBSTRUCTIONS TO VISIBILITY.
      SKY/WX - SKY CONDITION AND SIGNIFICANT WEATHER.
      TMP - AIR TEMPERATURE.    DP   - DEWPOINT TEMPERATURE.
      RH  - RELATIVE HUMIDITY.  PRES - PRESSURE.
      HX  - HEAT INDEX.         WCI  - WIND CHILL INDEX.

*  THESE STATIONS ARE NOT NWS OR FAA STATIONS AND ARE NOT UNDER
   NWS QUALITY CONTROL.

LAZ040-048-061>063-065-066-069-300000-
SOUTHEAST LOUISIANA

CITY           SKY/WX    TMP DP  RH WIND       PRES   REMARKS
N.O. AUDUBON     N/A     83  73  69 MISG        N/A
N.O. INTL ARPT PTCLDY    83  69  62 N5        29.86R
N.O. LAKEFRONT CLEAR     81  72  74 NW6       29.86S
N.O. DOWNTOWN* FAIR      82  68  61 N6        29.86S
SLIDELL        PTCLDY    84  71  65 NE3       29.85S
BATON ROUGE    MOSUNNY   82  71  69 E8        29.86R
BOOTHVILLE     CLEAR     81  72  74 NE5       29.86S
BELLE CHASSE   PTCLDY    84  69  60 N3        29.85R
BOGALUSA*        N/A     85  69  57 NE5       29.87S
GALLIANO*      NOT AVBL
NEW ROADS*     FAIR      80  73  81 NE3       29.87R
GONZALES*      MOCLDY    82  75  80 E3        29.86R
HAMMOND*       NOT AVBL
HOUMA*         MOSUNNY  N/A N/A N/A NE5       29.86
PORT FOURCHON* NOT AVBL

$$

LAZ041-044-053-054-300000-
SOUTHWEST LOUISIANA

CITY           SKY/WX    TMP DP  RH WIND       PRES   REMARKS
LAKE CHARLES   MOSUNNY   85  72  65 NE7       29.85S
LAFAYETTE      CLOUDY    83  73  72 CALM      29.86R
PATTERSON      PTSUNNY   77  73  88 SW9       29.89R
SALT POINT       N/A     77  74  90 CALM      29.87R
NEW IBERIA     PTSUNNY   84  73  69 N7        29.86R
CHENAULT AIRPK NOT AVBL

$$

LAZ027-028-300000-
CENTRAL LOUISIANA

CITY           SKY/WX    TMP DP  RH WIND       PRES   REMARKS
FORT POLK      NOT AVBL
ALEXANDRIA INT PTSUNNY   81  71  71 N7        29.87R
ALEXANDRIA     PTSUNNY   82  73  74 N5        29.88S

$$

LAZ001-002-300000-
NORTHWEST LOUISIANA

CITY           SKY/WX    TMP DP  RH WIND       PRES   REMARKS
SHREVEPORT     PTSUNNY   85  65  51 E7        29.89S
BARKSDALE AFB  HAZE      84  64  51 S2        29.90S VSB 1
DTN SHREVEPORT PTSUNNY   85  65  51 NE5       29.90S

$$

LAZ014-016-300000-
NORTHEAST LOUISIANA

CITY           SKY/WX    TMP DP  RH WIND       PRES   REMARKS
MONROE         MOSUNNY   85  67  54 CALM      29.90R
TALLULAH       PTCLDY    84  66  54 NE8       29.88S

$$




USA.gov is the U.S. government's official web portal to all federal, state and local government web resources and services.